Location: Unspecified
(0.0000°N, 0.0000°E)
Time: 00:58:18
(UTC+00:00)

Hubble Space Telescope - Visible Passes

Search period start: 23 June 2018 00:00
Search period end: 03 July 2018 00:00
Orbit: 537 x 541 km, 28.5° (Epoch: 22 June)

Date Brightness Start Highest point End Pass type
(mag) Time Alt. Az. Time Alt. Az. Time Alt. Az.
25 Jun 3.9 20:36:44 10° NW 20:37:03 12° NNW 20:37:03 12° NNW visible
26 Jun 3.4 20:26:09 10° NW 20:27:16 17° NW 20:27:16 17° NW visible
27 Jun 3.2 18:36:55 10° N 18:38:29 12° NNE 18:40:02 10° NE visible
27 Jun 2.8 20:15:40 10° NW 20:17:33 26° NW 20:17:33 26° NW visible
28 Jun 2.9 18:25:36 10° NNW 18:28:12 16° NNE 18:30:49 10° ENE visible
28 Jun 2.2 20:05:18 10° WNW 20:07:51 37° WNW 20:07:51 37° WNW visible
29 Jun 1.7 19:55:02 10° WNW 19:58:11 45° WSW 19:58:11 45° WSW visible
30 Jun 1.7 19:44:52 10° W 19:48:33 39° SW 19:48:33 39° SW visible
01 Jul 2.1 19:34:51 10° W 19:38:25 28° SSW 19:38:56 27° SSW visible
02 Jul 2.6 19:25:00 10° WSW 19:28:07 20° SSW 19:29:19 18° S visible
